Regional Weather Roundup
Issued by NWS

Home | Current Version | Previous Version | Text Only | Print | Product List | Glossary On
Versions: 1 2 3 4 5 6 7 8 9 10 11 12 13 14 15 16 17 18 19 20 21 22 23 24 25 26 27 28 29 30 31 32 33 34 35 36 37 38 39 40 41 42 43 44 45 46 47 48 49 50
000
ASUS43 KTOP 010608
RWRKS

WEATHER ROUNDUP FOR KANSAS
NATIONAL WEATHER SERVICE GOODLAND KS
100 AM CDT SUN MAY 01 2016

NOTE:  "FAIR" INDICATES FEW OR NO CLOUDS BELOW 12,000 FEET WITH NO
SIGNIFICANT WEATHER AND/OR OBSTRUCTIONS TO VISIBILITY.

KSZ001>006-013>018-027>032-041>047-010700-
NORTHWEST KANSAS

CITY           SKY/WX    TMP DP  RH WIND       PRES   REMARKS
GOODLAND       CLOUDY    35  33  92 N22G32    30.02R WCI  23
6HR MIN TEMP:  34; 6HR MAX TEMP:  36; 6HR PCP:  0.01;

HAYS           CLOUDY    43  32  65 NW8G16    29.96R
HILL CITY      CLOUDY    41  35  79 NW16G23   29.97S
6HR MIN TEMP:  40; 6HR MAX TEMP:  45;

RUSSELL        CLOUDY    44  40  85 W15       29.93S
6HR MIN TEMP:  43; 6HR MAX TEMP:  50;

$$

KSZ061>065-074>080-084>089-010700-
SOUTHWEST KANSAS

CITY           SKY/WX    TMP DP  RH WIND       PRES   REMARKS
DODGE CITY     CLEAR     38  33  82 NW16      30.01R WCI  29
6HR MIN TEMP:  38; 6HR MAX TEMP:  50;

ELKHART          N/A     40  29  65 NW17        N/A  WCI  31
GARDEN CITY    CLOUDY    39  32  76 NW21      30.03R WCI  29
6HR MIN TEMP:  38; 6HR MAX TEMP:  47;

GREAT BEND     CLOUDY    45  36  70 W13       29.97R
LIBERAL        CLEAR     39  30  70 NW13G18   30.06R WCI  32
PRATT          CLEAR     38  36  89 W9        29.98R
6HR MIN TEMP:  38; 6HR MAX TEMP:  52;

$$

KSZ066>073-081>083-090>101-010700-
SOUTHEAST KANSAS

CITY           SKY/WX    TMP DP  RH WIND       PRES   REMARKS
CHANUTE        CLEAR     51  43  74 W3        29.93R
6HR MIN TEMP:  50; 6HR MAX TEMP:  65;

COFFEYVILLE    CLEAR     52  45  77 NW6       29.94R
6HR MIN TEMP:  52; 6HR MAX TEMP:  66;

HUTCHINSON     PTCLDY    45  41  86 NW5       29.94R
6HR MIN TEMP:  44; 6HR MAX TEMP:  58;

MEDICINE LODGE   N/A     44  39  82 NW7       29.98R
NEWTON         PTCLDY    45  37  76 W6        29.95R
PARSONS        CLEAR     49  45  86 CALM      29.94R
6HR MIN TEMP:  48; 6HR MAX TEMP:  66;

WICHITA INTL   CLEAR     48  41  76 W8        29.94R
6HR MIN TEMP:  44; 6HR MAX TEMP:  60;

WICHITA JABRA  CLEAR     46  41  82 W6        29.94R
6HR MIN TEMP:  46; 6HR MAX TEMP:  59;

WICHITA MCCONL CLEAR     48  42  78 NW3       29.94R
WINFIELD       CLEAR     47  43  86 CALM      29.96R
6HR MIN TEMP:  46; 6HR MAX TEMP:  61;

$$

KSZ007>012-019>026-033>040-048>060-102>105-010700-
NORTHEAST KANSAS

CITY           SKY/WX    TMP DP  RH WIND       PRES   REMARKS
CONCORDIA      CLOUDY    46  43  89 W9        29.89S
6HR MIN TEMP:  46; 6HR MAX TEMP:  53;

EMPORIA        CLEAR     49  44  83 W3        29.91R
6HR MIN TEMP:  49; 6HR MAX TEMP:  60;

LAWRENCE       CLOUDY    53  47  79 W5        29.90R
6HR MIN TEMP:  52; 6HR MAX TEMP:  64;

MANHATTAN      CLOUDY    52  43  71 W5        29.90R
6HR MIN TEMP:  52; 6HR MAX TEMP:  60;

MARYSVILLE     CLOUDY    50  46  87 W6        29.88R
OLATHE IND     PTCLDY    53  47  79 W8        29.90R
6HR MIN TEMP:  53; 6HR MAX TEMP:  64;

OLATHE EXE     CLOUDY    53  47  79 MISG      29.89R
6HR MIN TEMP:  53; 6HR MAX TEMP:  63;

SALINA         CLEAR     47  42  83 W8        29.92S
6HR MIN TEMP:  47; 6HR MAX TEMP:  57;

TOPEKA BILLARD CLOUDY    54  45  71 W6        29.90R
6HR MIN TEMP:  54; 6HR MAX TEMP:  63;

TOPEKA FORBES  CLOUDY    53  45  74 W9        29.90R
6HR MIN TEMP:  53; 6HR MAX TEMP:  64;

$$




USA.gov is the U.S. government's official web portal to all federal, state and local government web resources and services.